[[{"header":{"parameterUnit":"m.s-1","parameterCategory":1,"la1":30.2991,"la2":30.254,"lo1":-89.0895,"lo2":-89.0444,"dy":0.0017,"dx":0.0017,"nx":28,"ny":28,"refTime":"2024-06-10T03:00:00:Z","depth":0,"parameterNumber":2,"parameterNumberName":"U-component_of_WINDS"},"data":[0,0,0,0,0,0,0,0,0,0,0,0,0,0,0,0,0,0,0,0,0,0,0,0,0,0,0,0,0,0,0,0,0,0,0,0,0,0,0,0,0,0,0,0,0,0,0,0,0,0,0,0,0,0,0,0,0,0,2.6977,2.6979,0,2.7144,2.7146,2.7148,2.7171,2.717,2.7168,2.7167,2.7342,2.7348,2.7354,0,0,0,0,0,0,0,0,0,0,0,0,0,2.6685,2.669,2.6977,2.6979,2.6981,2.7144,2.7146,2.7148,2.7172,2.717,2.7168,2.7166,2.734,2.7347,2.7354,0,0,0,0,0,0,0,0,0,0,0,0,0,2.6828,2.6692,2.6977,2.7013,2.7017,2.7143,2.7146,2.7149,2.7172,2.717,2.7167,2.7165,2.7338,2.7346,2.7355,2.7458,0,0,2.7383,2.7387,0,0,0,0,0,0,0,0,2.682,2.6839,2.7005,2.701,2.7016,2.7134,2.7107,2.7253,2.7173,2.7114,2.7167,2.7164,2.7275,2.7289,2.7326,2.7467,2.7474,2.7384,2.739,2.7394,2.7396,0,0,0,0,0,0,0,2.681,2.6832,2.7043,2.7008,2.7014,2.7022,2.704,2.7135,2.7205,2.7119,2.7121,2.714,2.7278,2.7317,2.733,2.7477,2.7384,2.7392,2.7398,2.7401,2.7713,2.7716,0,0,0,0,0,0,2.6793,2.6823,2.7038,2.7048,2.691,2.7029,2.7049,2.7099,2.7204,2.7218,2.7142,2.714,2.7302,2.7319,2.7336,2.7465,2.7394,2.7402,2.7407,2.7711,2.7714,2.7717,0,0,0,0,0,0,2.6787,2.6812,2.7031,2.6937,2.6965,2.7037,2.7092,2.7103,2.7142,2.7222,2.7235,2.7168,2.7301,2.7323,2.7428,2.7471,2.7406,2.7415,2.7707,2.7712,2.7716,2.7722,0,0,0,0,0,0,2.6778,2.6809,2.6847,2.6937,2.697,2.7118,2.7095,2.7108,2.7158,2.7158,2.725,2.7264,2.7301,2.7414,2.7437,2.7482,2.7422,2.7704,2.7709,2.7714,2.7718,2.7725,2.7732,0,0,0,0,0,2.6767,2.6843,2.6849,2.6875,2.7019,2.7121,2.714,2.718,2.7161,2.7201,2.7253,2.7261,2.7463,2.7425,2.7451,2.7499,2.7701,2.7708,2.7714,2.7715,2.7724,2.7732,0,0,0,0,0,0,2.6757,2.6855,2.6863,2.6969,2.7037,2.7124,2.7176,2.7188,2.7263,2.726,2.7308,2.7329,2.7432,2.7477,2.7432,2.7606,2.7581,2.7593,2.7572,2.7582,2.7589,2.7575,2.7429,0,0,0,0,0,2.6767,2.684,2.6923,2.7009,2.7042,2.7103,2.7149,2.7174,2.7246,2.7275,2.7334,2.7405,2.7485,2.7536,2.7614,2.7725,2.7747,2.7772,2.7779,2.7784,2.7794,2.7858,2.787,2.7738,2.7738,2.7738,0,0,2.6788,2.6851,2.6894,2.7008,2.7063,2.7139,2.7127,2.7207,2.7265,2.7288,2.739,2.7436,2.7519,2.7628,2.7679,2.7668,2.7835,2.7792,2.7796,2.7803,2.7865,2.7878,2.7889,2.7742,2.7741,2.7741,0,0,2.6866,2.692,2.6998,2.7054,2.7137,2.7178,2.7197,2.7284,2.7315,2.7419,2.7438,2.7509,2.7645,2.7703,2.775,2.7854,2.7865,2.7879,2.7915,2.7976,2.7987,2.7996,2.8034,2.8046,2.7888,2.7888,2.7888,0,2.6882,2.6996,2.7037,2.7118,2.7168,2.7192,2.7273,2.7326,2.7431,2.7466,2.7453,2.7625,2.7682,2.7806,2.7831,2.7869,2.7893,2.7867,2.7982,2.7992,2.8001,2.8037,2.8051,2.7889,2.7889,2.7889,2.7889,0,2.7012,2.7091,2.7145,2.7244,2.7301,2.7381,2.7437,2.749,2.7512,2.7555,2.7662,2.7732,2.7825,2.7857,2.7879,2.7984,2.7975,2.7972,2.7947,2.8014,2.8049,2.8063,2.789,2.789,2.789,2.7889,0,0,2.7084,2.7208,2.7227,2.7273,2.7369,2.7432,2.7515,2.7605,2.765,2.7723,2.7794,2.791,2.7908,2.7962,2.7992,2.8046,2.8125,2.8036,2.8039,2.805,2.8247,2.8248,2.8263,2.8133,2.8136,2.8138,2.824,0,2.7172,2.7318,2.736,2.7484,2.7559,2.7585,2.7658,2.7725,2.7769,2.784,2.7889,2.797,2.7961,2.7994,2.8049,2.8103,2.8165,2.8097,2.8201,2.8205,2.8178,2.8281,2.8282,2.8374,2.8254,2.8256,2.8258,0,2.7294,2.7368,2.7499,2.7587,2.762,2.7684,2.7771,2.7839,2.7918,2.7946,2.8007,2.8033,2.8123,2.8095,2.822,2.8173,2.8219,2.8253,2.8257,2.8268,2.8234,2.8294,2.8405,2.8418,2.8279,2.8278,2.8276,0,2.7333,2.7467,2.7563,2.7602,2.7707,2.7751,2.7798,2.7874,2.7926,2.8004,2.8038,2.8126,2.8173,2.8242,2.8291,2.8266,2.8413,2.8389,2.844,2.8438,2.8468,2.8465,2.8587,2.8499,2.8499,2.8499,2.8499,0,2.7426,2.7505,2.7582,2.7641,2.7731,2.778,2.7869,2.7917,2.7985,2.8056,2.8085,2.8151,2.8213,2.8288,2.8327,2.8426,2.8448,2.8474,2.8483,2.847,2.8467,2.85,2.8494,2.8503,2.8502,2.8501,2.85,0,2.7484,2.7538,2.7645,2.7736,2.7761,2.7824,2.7903,2.7963,2.8009,2.8097,2.8121,2.8194,2.8284,2.834,2.8455,2.8482,2.859,2.8598,2.8563,2.8567,2.8614,2.8609,2.8761,2.8783,2.8681,2.8682,2.8683,0,2.7538,2.76,2.7699,2.7747,2.7794,2.7872,2.7926,2.7978,2.8033,2.8129,2.8178,2.8269,2.8345,2.8488,2.8552,2.8641,2.865,2.8698,2.8664,2.865,2.8651,2.8646,2.8653,2.8703,2.8703,2.8704,2.8705,0,2.763,2.7655,2.773,2.7817,2.788,2.7951,2.8021,2.806,2.8125,2.8186,2.8278,2.8337,2.8454,2.8546,2.864,2.869,2.8709,2.8715,2.8732,2.8718,2.8695,2.8708,2.8577,2.8711,2.871,2.871,2.871,2.8709,2.7688,2.7745,2.7823,2.7907,2.7966,2.8032,2.8093,2.8147,2.8224,2.8323,2.835,2.8446,2.8527,2.8656,2.8708,2.8786,2.8779,2.8803,2.8809,2.8814,2.8814,2.8684,2.8804,2.8803,2.8803,2.8803,2.8803,0,2.7781,2.7833,2.791,2.8008,2.8075,2.8087,2.8167,2.8222,2.8306,2.8379,2.8454,2.8561,2.865,2.8723,2.8815,2.8864,2.8875,2.8886,2.8883,2.8894,2.8815,2.8791,2.8876,2.8876,2.8876,2.8876,2.8876,2.8876,2.7836,2.7933,2.7968,2.8095,2.8148,2.8241,2.8286,2.8348,2.8407,2.8524,2.8599,2.8645,2.8719,2.8818,2.8901,2.892,2.8953,2.8962,2.8983,2.8908,2.8899,2.8892,2.8869,2.8969,2.8969,2.9056,2.9057,2.9057]},{"header":{"parameterUnit":"m.s-1","parameterCategory":1,"la1":30.2991,"la2":30.254,"lo1":-89.0895,"lo2":-89.0444,"dy":0.0017,"dx":0.0017,"nx":28,"ny":28,"refTime":"2024-06-10T03:00:00:Z","depth":0,"parameterNumber":3,"parameterNumberName":"V-component_of_WINDS"},"data":[0,0,0,0,0,0,0,0,0,0,0,0,0,0,0,0,0,0,0,0,0,0,0,0,0,0,0,0,0,0,0,0,0,0,0,0,0,0,0,0,0,0,0,0,0,0,0,0,0,0,0,0,0,0,0,0,0,0,2.1572,2.1573,0,2.1633,2.1633,2.1634,2.1672,2.1672,2.1673,2.1673,2.1729,2.1731,2.1732,0,0,0,0,0,0,0,0,0,0,0,0,0,2.1483,2.1484,2.1572,2.1573,2.1574,2.1633,2.1633,2.1634,2.1672,2.1672,2.1673,2.1673,2.1729,2.173,2.1732,0,0,0,0,0,0,0,0,0,0,0,0,0,2.153,2.1485,2.1572,2.16,2.1603,2.1632,2.1634,2.1635,2.1672,2.1672,2.1673,2.1673,2.1728,2.173,2.1732,2.1737,0,0,2.1738,2.1739,0,0,0,0,0,0,0,0,2.1527,2.1533,2.1595,2.1598,2.1601,2.1645,2.1623,2.1669,2.1672,2.1646,2.1673,2.1673,2.1701,2.1705,2.1715,2.174,2.1742,2.1738,2.174,2.174,2.1741,0,0,0,0,0,0,0,2.1524,2.1531,2.1596,2.1596,2.16,2.1607,2.1614,2.1632,2.167,2.1648,2.1651,2.1658,2.1703,2.1713,2.1717,2.1743,2.1738,2.174,2.1741,2.1742,2.1773,2.1773,0,0,0,0,0,0,2.1517,2.1528,2.1594,2.1598,2.1565,2.1608,2.1616,2.1631,2.167,2.1677,2.1657,2.1659,2.171,2.1715,2.1719,2.1727,2.174,2.1742,2.1743,2.1773,2.1773,2.1773,0,0,0,0,0,0,2.1515,2.1523,2.1592,2.1564,2.1573,2.161,2.1625,2.1632,2.1643,2.1678,2.1684,2.1662,2.171,2.1716,2.1733,2.1729,2.1743,2.1745,2.1774,2.1773,2.1773,2.1743,0,0,0,0,0,0,2.1513,2.1522,2.1526,2.1564,2.1575,2.1606,2.1625,2.1633,2.1647,2.165,2.1684,2.1689,2.1711,2.1729,2.1734,2.1732,2.1746,2.1774,2.1774,2.1773,2.1744,2.1742,2.1739,0,0,0,0,0,2.1509,2.1514,2.1526,2.1534,2.1581,2.1606,2.1612,2.1638,2.1646,2.165,2.1671,2.1688,2.1729,2.1731,2.1737,2.1735,2.1775,2.1774,2.1773,2.1746,2.1742,2.1739,0,0,0,0,0,0,2.1474,2.152,2.1533,2.1551,2.1574,2.1612,2.1617,2.1634,2.1654,2.1656,2.1686,2.1693,2.1706,2.1722,2.1723,2.1741,2.1753,2.1754,2.1731,2.1728,2.1725,2.1721,2.1748,0,0,0,0,0,2.1468,2.1487,2.1525,2.1537,2.1548,2.1581,2.1592,2.1611,2.1635,2.1645,2.1668,2.169,2.1707,2.1718,2.1736,2.1747,2.1754,2.1748,2.1746,2.1743,2.1743,2.1748,2.1746,2.177,2.177,2.177,0,0,2.1457,2.1484,2.1494,2.1531,2.1551,2.1567,2.1589,2.1605,2.1617,2.1647,2.1664,2.1681,2.1707,2.172,2.1727,2.1734,2.1738,2.1742,2.174,2.1741,2.1747,2.1745,2.1743,2.177,2.177,2.177,0,0,2.1444,2.1468,2.148,2.1499,2.153,2.1551,2.1554,2.1589,2.1602,2.162,2.1642,2.1655,2.1685,2.1703,2.1715,2.1707,2.1723,2.1712,2.1698,2.1702,2.17,2.1699,2.1695,2.1693,2.1712,2.1711,2.1711,0,2.1426,2.1454,2.1483,2.1499,2.1513,2.1542,2.1553,2.157,2.1604,2.1613,2.162,2.1658,2.1677,2.1694,2.1692,2.1701,2.1704,2.1708,2.1699,2.1697,2.1696,2.1693,2.1691,2.171,2.171,2.171,2.171,0,2.1429,2.1447,2.1453,2.1487,2.1502,2.1515,2.1544,2.1555,2.1572,2.1591,2.1607,2.1632,2.1655,2.166,2.1676,2.1678,2.1681,2.1693,2.1706,2.1692,2.1689,2.1688,2.1708,2.1708,2.1709,2.1709,0,0,2.1397,2.1446,2.1448,2.1463,2.1498,2.1511,2.1524,2.1548,2.1557,2.1578,2.1589,2.1613,2.1624,2.1638,2.1656,2.166,2.165,2.1671,2.1672,2.1666,2.1653,2.1644,2.1642,2.1661,2.1661,2.1661,2.1651,0,2.1389,2.1417,2.1443,2.146,2.1476,2.1503,2.1514,2.1535,2.1553,2.1568,2.1587,2.1603,2.1617,2.1625,2.1631,2.1651,2.1648,2.1652,2.1669,2.167,2.1662,2.1641,2.1631,2.1621,2.165,2.165,2.165,0,2.1385,2.1407,2.1426,2.1458,2.1465,2.1475,2.1498,2.1513,2.1536,2.1549,2.1564,2.1583,2.1595,2.1606,2.1623,2.1625,2.1633,2.1644,2.1644,2.1647,2.1659,2.1642,2.1618,2.1616,2.1648,2.1648,2.1648,0,2.1359,2.1393,2.1408,2.142,2.1458,2.1464,2.148,2.1504,2.1516,2.1535,2.1543,2.1563,2.1574,2.1588,2.161,2.1616,2.1624,2.1637,2.1633,2.1633,2.1634,2.1634,2.1611,2.164,2.164,2.164,2.164,0,2.1347,2.1358,2.1397,2.1407,2.1418,2.1446,2.1456,2.1474,2.1495,2.1507,2.153,2.154,2.157,2.1582,2.16,2.161,2.1615,2.1624,2.1629,2.1622,2.1621,2.1628,2.1629,2.1639,2.1639,2.164,2.164,0,2.1321,2.1348,2.1366,2.1401,2.1409,2.1416,2.1445,2.1453,2.1472,2.1487,2.1491,2.152,2.1537,2.1561,2.1584,2.1595,2.1603,2.161,2.1595,2.1598,2.1592,2.1592,2.1573,2.1572,2.1602,2.1601,2.1601,0,2.1312,2.1321,2.1356,2.1366,2.1382,2.1398,2.141,2.1438,2.1449,2.1476,2.1481,2.1499,2.1516,2.154,2.1562,2.1579,2.1587,2.1579,2.1589,2.1582,2.1586,2.1585,2.1585,2.1576,2.1576,2.1575,2.1575,0,2.1293,2.1306,2.1324,2.1346,2.1361,2.1379,2.1399,2.1405,2.1436,2.1447,2.1465,2.1478,2.1501,2.1518,2.1538,2.1552,2.1568,2.1571,2.1571,2.1565,2.1555,2.156,2.1588,2.1572,2.1572,2.1572,2.1572,2.1573,2.1275,2.1284,2.1309,2.1328,2.1346,2.1363,2.1373,2.1393,2.1409,2.1431,2.1445,2.1462,2.1483,2.1512,2.1524,2.1536,2.1543,2.1543,2.1543,2.1543,2.154,2.1554,2.154,2.154,2.154,2.154,2.154,0,2.1257,2.1275,2.1292,2.1318,2.1332,2.1347,2.1369,2.1379,2.1394,2.1413,2.1429,2.1448,2.1464,2.1487,2.1504,2.1509,2.1516,2.1513,2.1512,2.1515,2.1533,2.1531,2.1506,2.1506,2.1506,2.1506,2.1506,2.1506,2.1249,2.1264,2.1279,2.1302,2.1319,2.1336,2.1347,2.1362,2.1378,2.1398,2.1413,2.1428,2.1448,2.1467,2.1481,2.1488,2.1492,2.1486,2.1494,2.1511,2.1514,2.1517,2.1515,2.1487,2.1487,2.1475,2.1475,2.1475]}]]